Regional Weather Roundup
Issued by NWS Goodland, KS

Home | Current Version | Previous Version | Text Only | Print | Product List | Glossary Off
Versions: 1 2 3 4 5 6 7 8 9 10 11 12 13 14 15 16 17 18 19 20 21 22 23 24 25 26 27 28 29 30 31 32 33 34 35 36 37 38 39 40 41 42 43 44 45 46 47 48 49 50

000
ASUS43 KGLD 011459
RWRGLD

GOODLAND FORECAST AREA HOURLY WEATHER ROUNDUP
NATIONAL WEATHER SERVICE GOODLAND KS
800 AM MST SUN FEB 01 2015

...OFFICIAL OBSERVATIONS...

CITY           SKY/WX    TMP DP  RH WIND       PRES   REMARKS
GOODLAND KS    SUNNY     16  12  84 N20G30    30.14R WCI  -1
HILL CITY KS   CLOUDY    16  10  77 N25G35    30.14R WCI  -3
IMPERIAL NEB   CLOUDY    13   5  70 N20       30.20R WCI  -5
MCCOOK NEB     SUNNY     13   5  70 NW24      30.19R WCI  -7
AKRON CO       CLOUDY    19  14  81 N20G28    30.12R WCI   3
BURLINGTON CO  MOSUNNY   20  14  77 N25G33    30.12R WCI   2
LIMON CO       LGT SNOW  18  14  84 N10       30.11R FOG     WCI   6
$$

...UNOFFICIAL OBSERVATIONS...

CITY           SKY/WX    TMP DP  RH WIND       PRES   REMARKS
COLBY KS       MOSUNNY   16  10  79 NW21G37   30.15R WCI  -2
GOVE KS          N/A     18  32 100 MISG        N/A
NORTON KS      CLOUDY    12   5  73 NW31G37   30.13R WCI -10
SHARON SPRINGS   N/A     21  17  85 N21G33      N/A  WCI   5
KIT CARSON CO    N/A     22  17  82 MISG        N/A
$$


USA.gov is the U.S. government's official web portal to all federal, state and local government web resources and services.